GFSGBSN_500_temp_207.txt.gz
Temp
-16 -16 -17 -18 -18 -18 -18 -18 -18 -16 -16 -14 -14 -13 -12 -11 -11 -12 -11 -11 -11 -10 -10 -10 -9 -10 -10 -10 -9 -8 -9 -8 -8 -8 -8 -8 -7 -7 -7 -7 -7 -7 -7 -7 -7 -7 -7
-17 -18 -19 -19 -19 -18 -18 -18 -19 -18 -17 -16 -15 -14 -13 -12 -12 -12 -12 -12 -11 -11 -11 -10 -10 -10 -10 -9 -10 -9 -9 -9 -8 -8 -8 -8 -8 -8 -7 -7 -7 -7 -7 -6 -7 -7 -7
-18 -18 -19 -19 -19 -19 -19 -18 -19 -19 -18 -17 -16 -15 -15 -13 -13 -12 -12 -12 -12 -11 -11 -11 -11 -10 -10 -10 -9 -9 -9 -9 -9 -9 -9 -8 -8 -8 -8 -8 -7 -7 -7 -7 -7 -7 -7
-18 -19 -19 -20 -20 -19 -19 -19 -19 -19 -19 -18 -17 -16 -15 -15 -14 -13 -13 -12 -13 -12 -11 -11 -11 -11 -10 -10 -9 -9 -9 -9 -9 -9 -9 -9 -9 -9 -8 -8 -8 -8 -7 -7 -8 -8 -8
-19 -19 -20 -20 -20 -20 -20 -20 -19 -19 -19 -19 -18 -17 -16 -16 -15 -14 -13 -13 -13 -13 -13 -12 -11 -11 -10 -10 -10 -10 -10 -10 -10 -9 -9 -9 -9 -9 -9 -8 -9 -8 -8 -8 -8 -8 -8
-19 -19 -20 -20 -21 -21 -21 -21 -21 -20 -19 -19 -18 -18 -17 -17 -16 -15 -14 -14 -14 -14 -13 -13 -12 -11 -10 -10 -10 -10 -10 -10 -10 -10 -9 -9 -9 -9 -9 -9 -8 -9 -8 -8 -9 -9 -8
-20 -20 -20 -21 -21 -21 -21 -21 -22 -21 -21 -20 -19 -18 -18 -17 -17 -16 -15 -15 -14 -14 -13 -11 -11 -11 -10 -10 -11 -11 -10 -10 -10 -10 -9 -10 -9 -8 -9 -9 -9 -9 -9 -9 -9 -10 -7
-20 -20 -21 -21 -21 -21 -22 -21 -22 -22 -22 -21 -20 -19 -19 -18 -18 -17 -16 -15 -15 -15 -14 -12 -13 -12 -12 -11 -11 -12 -11 -11 -10 -9 -10 -10 -9 -9 -9 -10 -10 -10 -9 -9 -9 -9 -8
-20 -21 -21 -22 -22 -22 -22 -22 -22 -22 -22 -22 -21 -20 -20 -19 -18 -18 -17 -15 -17 -15 -15 -13 -13 -12 -13 -12 -11 -12 -12 -11 -10 -10 -10 -10 -9 -10 -10 -10 -9 -9 -9 -9 -9 -9 -9
-21 -22 -22 -23 -23 -23 -23 -23 -22 -22 -22 -22 -22 -21 -21 -21 -20 -18 -17 -17 -17 -16 -16 -14 -13 -13 -13 -14 -12 -12 -12 -12 -12 -10 -10 -10 -10 -10 -10 -10 -10 -9 -10 -9 -9 -9 -9
-21 -22 -23 -24 -24 -24 -24 -24 -23 -23 -22 -22 -22 -22 -22 -22 -20 -19 -18 -18 -19 -18 -19 -15 -13 -13 -13 -13 -12 -12 -12 -13 -12 -11 -12 -9 -10 -10 -9 -9 -10 -9 -10 -10 -9 -9 -9
-21 -22 -24 -24 -25 -25 -25 -24 -24 -23 -22 -22 -22 -22 -22 -22 -21 -20 -20 -20 -21 -21 -21 -17 -15 -14 -14 -12 -13 -13 -14 -13 -13 -13 -12 -11 -11 -10 -9 -10 -11 -11 -10 -10 -9 -9 -8
-22 -23 -24 -25 -25 -25 -24 -24 -24 -23 -23 -22 -22 -22 -22 -22 -21 -22 -22 -21 -22 -23 -20 -17 -16 -14 -13 -13 -12 -14 -13 -13 -12 -12 -11 -11 -11 -10 -10 -10 -10 -11 -10 -10 -10 -9 -7
-22 -22 -24 -25 -25 -25 -24 -24 -24 -23 -23 -22 -22 -22 -22 -22 -22 -22 -22 -22 -23 -22 -19 -17 -17 -16 -13 -13 -13 -14 -14 -13 -13 -13 -12 -11 -11 -10 -9 -9 -10 -10 -10 -10 -10 -10 -8
-21 -22 -24 -24 -24 -24 -24 -24 -24 -24 -24 -23 -23 -23 -22 -22 -22 -22 -22 -23 -23 -22 -20 -19 -18 -18 -15 -14 -14 -14 -14 -13 -13 -12 -12 -12 -11 -11 -11 -10 -11 -10 -10 -9 -13 -11 -10
-21 -22 -23 -24 -24 -24 -23 -23 -23 -23 -23 -23 -23 -23 -22 -22 -22 -22 -23 -23 -22 -21 -21 -20 -20 -19 -18 -15 -15 -15 -14 -13 -12 -13 -13 -12 -12 -12 -12 -11 -11 -12 -10 -13 -12 -11 -10
-21 -22 -23 -24 -23 -23 -23 -23 -23 -23 -24 -24 -24 -23 -23 -23 -22 -23 -23 -23 -22 -22 -21 -21 -21 -20 -19 -18 -17 -16 -14 -12 -12 -12 -13 -12 -13 -13 -14 -11 -10 -11 -12 -11 -12 -11 -10
-21 -22 -22 -23 -23 -23 -23 -23 -23 -24 -24 -24 -24 -23 -23 -24 -24 -24 -24 -23 -23 -22 -22 -21 -21 -20 -19 -18 -19 -18 -17 -13 -12 -12 -13 -12 -13 -14 -14 -12 -12 -13 -12 -12 -12 -9 -11
-21 -21 -22 -23 -24 -23 -23 -23 -23 -24 -24 -24 -24 -24 -24 -24 -24 -24 -24 -23 -24 -23 -22 -22 -22 -21 -20 -19 -19 -19 -18 -13 -13 -14 -13 -13 -15 -16 -15 -16 -14 -12 -10 -11 -13 -12 -13
-21 -21 -22 -22 -23 -24 -24 -24 -24 -24 -24 -24 -24 -24 -25 -25 -24 -24 -23 -24 -24 -23 -23 -22 -22 -22 -21 -18 -19 -18 -17 -15 -14 -14 -14 -15 -15 -15 -14 -12 -11 -12 -11 -12 -12 -12 -12
-22 -22 -22 -22 -22 -24 -24 -24 -24 -24 -24 -24 -24 -24 -24 -24 -23 -24 -24 -24 -24 -23 -24 -23 -23 -22 -21 -20 -20 -18 -18 -17 -16 -17 -15 -17 -16 -15 -14 -15 -15 -14 -13 -13 -13 -13 -13
-21 -22 -22 -22 -22 -23 -24 -24 -24 -24 -24 -24 -24 -24 -24 -24 -24 -24 -24 -24 -24 -24 -24 -23 -23 -22 -21 -20 -18 -19 -19 -18 -17 -17 -17 -16 -16 -15 -15 -15 -15 -16 -14 -14 -14 -13 -12
-21 -22 -22 -22 -22 -23 -24 -24 -24 -24 -24 -24 -24 -24 -25 -24 -24 -24 -24 -24 -24 -24 -24 -24 -23 -23 -22 -21 -19 -19 -19 -18 -19 -18 -17 -17 -16 -16 -15 -14 -15 -16 -16 -16 -13 -13 -12
-21 -22 -22 -22 -22 -22 -23 -24 -25 -24 -24 -24 -24 -25 -25 -25 -24 -24 -24 -24 -24 -24 -25 -24 -24 -24 -23 -22 -21 -22 -18 -19 -19 -18 -18 -18 -17 -17 -16 -15 -17 -15 -15 -13 -15 -15 -13
-21 -22 -22 -23 -22 -22 -23 -24 -24 -24 -25 -25 -25 -25 -25 -25 -24 -24 -24 -25 -24 -25 -25 -24 -24 -25 -23 -23 -21 -19 -18 -18 -19 -17 -19 -17 -17 -18 -17 -16 -17 -16 -15 -14 -12 -13 -14
-21 -21 -22 -23 -23 -23 -23 -23 -24 -24 -25 -25 -25 -25 -25 -25 -25 -24 -24 -24 -24 -25 -25 -24 -24 -24 -23 -23 -23 -20 -18 -19 -18 -17 -17 -17 -17 -18 -17 -18 -18 -15 -13 -14 -14 -16 -14
-21 -21 -22 -22 -23 -23 -23 -23 -24 -24 -25 -25 -25 -25 -25 -25 -25 -25 -24 -25 -24 -24 -24 -25 -24 -24 -24 -23 -23 -21 -19 -19 -18 -18 -17 -18 -17 -17 -16 -17 -17 -14 -12 -14 -16 -14 -13
-21 -21 -21 -22 -23 -23 -23 -23 -24 -25 -25 -26 -26 -26 -26 -26 -25 -25 -25 -25 -24 -24 -24 -24 -24 -24 -24 -23 -23 -21 -19 -18 -19 -18 -18 -17 -17 -17 -17 -17 -17 -13 -13 -15 -15 -14 -13
-21 -22 -22 -22 -23 -23 -23 -23 -23 -25 -25 -26 -26 -26 -26 -26 -25 -26 -25 -25 -24 -24 -24 -24 -24 -24 -23 -22 -21 -20 -19 -18 -18 -18 -18 -18 -18 -17 -16 -15 -14 -14 -15 -16 -17 -15 -14

GFSGBSN_500_temp_210.txt.gz
Temp
-15 -15 -15 -15 -15 -15 -15 -15 -15 -16 -15 -15 -14 -13 -13 -13 -12 -12 -12 -11 -11 -11 -10 -10 -10 -10 -10 -9 -9 -9 -9 -9 -8 -8 -8 -8 -8 -8 -7 -7 -7 -7 -7 -7 -7 -6 -7
-16 -16 -16 -16 -16 -16 -16 -16 -16 -17 -18 -18 -17 -16 -14 -14 -13 -13 -12 -12 -12 -11 -11 -10 -10 -11 -10 -9 -10 -9 -9 -9 -9 -8 -8 -8 -8 -8 -8 -8 -7 -7 -7 -7 -7 -6 -6
-17 -17 -17 -17 -17 -17 -17 -17 -18 -18 -18 -18 -18 -18 -17 -15 -14 -14 -13 -12 -12 -12 -11 -11 -10 -11 -11 -9 -10 -9 -9 -9 -9 -9 -9 -8 -8 -8 -7 -8 -8 -7 -7 -7 -7 -7 -7
-17 -18 -18 -18 -18 -18 -18 -18 -19 -19 -19 -19 -18 -18 -18 -17 -16 -15 -14 -13 -13 -12 -12 -12 -11 -11 -10 -11 -11 -10 -9 -9 -10 -9 -9 -9 -8 -8 -8 -8 -8 -8 -7 -7 -7 -7 -7
-18 -18 -18 -18 -19 -19 -19 -19 -19 -20 -20 -19 -19 -19 -18 -19 -17 -16 -16 -14 -14 -13 -13 -12 -12 -11 -9 -11 -11 -10 -10 -10 -10 -10 -9 -9 -9 -8 -8 -8 -8 -8 -7 -8 -7 -8 -8
-18 -18 -19 -19 -19 -19 -20 -20 -20 -20 -20 -20 -19 -19 -19 -19 -19 -17 -17 -15 -15 -14 -14 -13 -12 -12 -10 -10 -10 -10 -10 -11 -10 -10 -10 -9 -9 -9 -9 -8 -7 -8 -8 -8 -8 -8 -9
-18 -19 -19 -19 -19 -20 -20 -20 -20 -21 -21 -21 -20 -20 -19 -19 -19 -18 -18 -16 -15 -15 -14 -13 -11 -11 -11 -10 -11 -11 -11 -11 -11 -11 -10 -10 -10 -9 -8 -8 -8 -9 -9 -9 -9 -9 -11
-18 -19 -19 -19 -20 -20 -21 -21 -21 -21 -21 -21 -21 -21 -21 -20 -19 -19 -18 -17 -16 -16 -15 -15 -14 -13 -13 -12 -11 -11 -12 -12 -11 -10 -11 -10 -9 -9 -9 -9 -9 -9 -9 -9 -9 -10 -11
-19 -19 -20 -20 -20 -21 -21 -22 -22 -22 -22 -22 -21 -22 -22 -21 -20 -20 -18 -18 -18 -17 -16 -15 -14 -13 -13 -13 -12 -12 -12 -12 -11 -12 -11 -10 -9 -10 -10 -10 -9 -9 -9 -9 -9 -10 -9
-19 -20 -20 -21 -21 -22 -23 -24 -24 -23 -22 -22 -22 -22 -22 -22 -20 -20 -19 -19 -20 -18 -17 -16 -15 -13 -13 -14 -13 -12 -12 -12 -13 -11 -11 -11 -11 -10 -10 -10 -10 -9 -10 -10 -10 -10 -9
-20 -20 -21 -21 -22 -23 -24 -24 -24 -24 -23 -23 -22 -23 -23 -22 -21 -20 -21 -21 -22 -20 -20 -17 -16 -14 -14 -14 -12 -12 -12 -13 -12 -11 -12 -10 -11 -11 -11 -9 -10 -9 -11 -11 -11 -10 -10
-20 -21 -21 -21 -23 -24 -25 -25 -25 -25 -24 -23 -23 -23 -23 -22 -22 -22 -22 -22 -23 -23 -22 -18 -16 -15 -15 -13 -13 -13 -13 -13 -13 -13 -14 -11 -11 -11 -10 -10 -10 -10 -11 -11 -11 -10 -10
-20 -21 -21 -22 -23 -24 -25 -25 -25 -25 -24 -24 -23 -23 -23 -22 -22 -23 -23 -23 -23 -24 -20 -18 -18 -16 -15 -14 -13 -14 -13 -13 -13 -13 -12 -11 -11 -11 -11 -12 -11 -11 -11 -11 -10 -10 -7
-20 -21 -21 -22 -23 -24 -24 -24 -24 -25 -24 -24 -23 -23 -23 -23 -23 -24 -24 -24 -24 -23 -21 -19 -18 -18 -16 -15 -14 -15 -15 -14 -14 -14 -13 -12 -13 -11 -10 -10 -10 -11 -11 -11 -10 -10 -8
-20 -21 -21 -22 -23 -23 -24 -24 -24 -24 -24 -23 -23 -23 -23 -23 -23 -23 -24 -24 -23 -23 -21 -19 -19 -19 -17 -17 -15 -15 -15 -14 -13 -13 -14 -13 -12 -12 -12 -11 -11 -10 -13 -9 -11 -11 -11
-20 -21 -21 -21 -22 -23 -23 -23 -23 -23 -23 -23 -23 -23 -23 -23 -23 -23 -23 -23 -23 -22 -21 -21 -20 -20 -20 -17 -18 -18 -16 -14 -14 -13 -13 -14 -13 -13 -11 -12 -13 -12 -11 -12 -13 -11 -10
-20 -21 -21 -21 -22 -23 -23 -23 -23 -23 -23 -23 -23 -23 -24 -24 -24 -24 -23 -22 -22 -22 -22 -21 -22 -21 -20 -19 -18 -18 -18 -15 -15 -14 -14 -13 -14 -14 -14 -15 -12 -12 -11 -13 -14 -13 -11
-20 -21 -21 -21 -21 -22 -23 -23 -23 -23 -23 -23 -24 -24 -24 -24 -24 -23 -23 -23 -22 -22 -22 -22 -22 -21 -21 -20 -18 -19 -18 -16 -16 -15 -14 -13 -13 -14 -14 -14 -13 -15 -13 -13 -13 -10 -10
-20 -20 -21 -21 -21 -22 -22 -23 -23 -23 -23 -24 -24 -24 -24 -24 -24 -23 -23 -23 -23 -22 -22 -22 -22 -22 -21 -21 -22 -21 -18 -18 -17 -17 -16 -14 -15 -15 -15 -15 -17 -17 -14 -13 -13 -12 -12
-20 -20 -21 -21 -21 -22 -22 -23 -23 -23 -23 -23 -24 -24 -24 -24 -24 -24 -24 -24 -23 -23 -22 -22 -22 -22 -22 -21 -21 -20 -19 -18 -18 -17 -17 -18 -16 -16 -15 -13 -14 -17 -14 -13 -14 -15 -13
-20 -20 -21 -21 -22 -22 -22 -22 -23 -24 -23 -23 -23 -24 -24 -24 -24 -24 -24 -24 -23 -23 -23 -24 -22 -22 -22 -22 -21 -21 -21 -19 -18 -17 -18 -17 -16 -17 -16 -15 -15 -16 -15 -14 -14 -14 -13
-20 -21 -21 -21 -22 -22 -22 -22 -23 -24 -24 -23 -23 -24 -24 -24 -24 -24 -24 -23 -24 -24 -24 -23 -24 -23 -22 -22 -22 -21 -21 -20 -19 -18 -18 -18 -18 -17 -17 -15 -15 -16 -16 -15 -16 -16 -15
-20 -20 -21 -21 -22 -22 -22 -22 -23 -24 -24 -23 -24 -24 -24 -24 -24 -24 -24 -24 -24 -24 -24 -24 -24 -23 -24 -23 -22 -22 -22 -21 -20 -19 -19 -18 -18 -17 -17 -16 -15 -17 -17 -16 -14 -15 -15
-20 -20 -21 -21 -22 -22 -22 -22 -23 -24 -24 -24 -24 -24 -24 -23 -24 -24 -24 -24 -24 -24 -24 -24 -24 -24 -23 -23 -24 -23 -22 -22 -20 -20 -18 -17 -17 -17 -17 -17 -18 -15 -14 -14 -16 -17 -16
-20 -20 -21 -21 -22 -22 -22 -22 -23 -23 -24 -24 -24 -24 -25 -24 -25 -25 -24 -24 -24 -24 -24 -24 -24 -24 -24 -24 -24 -24 -23 -22 -20 -20 -20 -18 -17 -17 -17 -17 -16 -16 -15 -16 -15 -14 -13
-20 -20 -21 -21 -22 -22 -23 -23 -23 -23 -24 -25 -25 -26 -26 -25 -24 -25 -25 -25 -24 -24 -24 -24 -24 -24 -24 -24 -24 -22 -23 -23 -21 -20 -19 -18 -18 -18 -17 -17 -17 -15 -15 -15 -15 -16 -14
-20 -20 -21 -21 -22 -22 -22 -23 -23 -23 -23 -24 -26 -26 -26 -25 -25 -25 -25 -25 -25 -24 -24 -24 -24 -24 -24 -24 -23 -23 -23 -23 -22 -20 -19 -18 -19 -18 -17 -18 -17 -16 -15 -15 -17 -15 -13
-20 -20 -21 -21 -22 -22 -22 -23 -23 -23 -23 -24 -25 -25 -25 -25 -25 -25 -25 -25 -25 -24 -24 -24 -24 -24 -24 -24 -24 -24 -23 -23 -23 -20 -19 -19 -18 -18 -18 -18 -18 -16 -15 -15 -14 -14 -15
-20 -20 -21 -21 -22 -22 -23 -23 -23 -23 -23 -24 -25 -25 -26 -26 -25 -25 -25 -25 -24 -24 -24 -24 -24 -24 -24 -24 -24 -23 -24 -23 -22 -21 -20 -20 -18 -18 -18 -16 -15 -15 -16 -16 -17 -18 -17

GFSGBSN_500_temp_216.txt.gz
Temp
-14 -14 -14 -14 -14 -14 -14 -14 -14 -14 -14 -14 -13 -13 -13 -13 -13 -13 -12 -12 -11 -11 -11 -10 -10 -10 -9 -9 -9 -9 -9 -9 -9 -9 -9 -9 -8 -8 -8 -7 -8 -7 -7 -7 -8 -7 -7
-14 -14 -14 -15 -15 -15 -15 -15 -15 -15 -15 -14 -14 -14 -14 -14 -13 -13 -13 -12 -12 -11 -11 -11 -10 -10 -10 -9 -10 -10 -10 -9 -9 -9 -9 -9 -9 -8 -8 -8 -7 -7 -7 -7 -7 -7 -6
-15 -15 -15 -15 -16 -16 -16 -16 -16 -16 -16 -16 -16 -15 -15 -14 -14 -14 -14 -13 -13 -12 -11 -11 -11 -10 -10 -9 -10 -10 -9 -10 -10 -10 -9 -10 -9 -9 -8 -8 -7 -7 -7 -7 -7 -7 -7
-15 -15 -16 -16 -16 -17 -17 -17 -18 -18 -17 -17 -17 -17 -16 -16 -15 -15 -15 -14 -14 -13 -12 -12 -11 -11 -10 -9 -11 -11 -10 -10 -10 -9 -10 -9 -9 -9 -9 -8 -8 -8 -7 -7 -7 -7 -7
-15 -16 -16 -16 -17 -17 -18 -18 -18 -18 -18 -18 -18 -17 -17 -17 -17 -16 -16 -15 -15 -14 -14 -13 -12 -11 -10 -10 -10 -11 -11 -10 -11 -10 -10 -10 -10 -9 -9 -9 -9 -8 -7 -7 -7 -7 -7
-16 -16 -16 -17 -17 -17 -18 -19 -19 -19 -19 -19 -18 -18 -18 -18 -17 -17 -17 -16 -16 -15 -15 -14 -13 -12 -10 -9 -11 -12 -12 -11 -10 -11 -10 -10 -10 -9 -9 -9 -8 -8 -8 -8 -7 -8 -8
-16 -16 -16 -17 -17 -18 -18 -19 -19 -19 -19 -19 -19 -19 -19 -19 -19 -18 -18 -18 -17 -17 -16 -15 -15 -13 -12 -11 -11 -12 -12 -11 -12 -11 -12 -11 -10 -9 -9 -9 -9 -9 -9 -8 -8 -9 -9
-16 -17 -17 -17 -18 -18 -18 -19 -19 -19 -19 -19 -19 -19 -19 -19 -19 -19 -19 -18 -18 -18 -17 -17 -17 -15 -14 -12 -11 -12 -13 -12 -12 -10 -11 -12 -10 -9 -9 -10 -10 -9 -9 -8 -8 -9 -9
-16 -17 -17 -17 -18 -18 -19 -20 -20 -19 -21 -21 -21 -21 -20 -19 -19 -19 -19 -19 -20 -20 -19 -18 -18 -17 -16 -15 -12 -12 -14 -13 -12 -12 -12 -11 -10 -10 -10 -10 -10 -9 -9 -9 -8 -10 -10
-17 -17 -17 -18 -18 -18 -19 -20 -20 -21 -22 -22 -23 -23 -22 -21 -21 -21 -21 -21 -21 -21 -20 -18 -18 -17 -17 -17 -14 -15 -14 -14 -13 -12 -12 -12 -11 -11 -11 -11 -10 -9 -9 -9 -9 -10 -9
-17 -17 -17 -18 -18 -19 -19 -20 -20 -22 -23 -23 -23 -23 -23 -22 -22 -22 -22 -22 -22 -22 -22 -20 -19 -18 -18 -18 -15 -15 -15 -15 -13 -12 -14 -11 -11 -11 -11 -10 -11 -9 -10 -10 -10 -10 -10
-17 -17 -18 -18 -18 -19 -19 -20 -20 -22 -22 -23 -23 -23 -24 -24 -23 -24 -24 -24 -24 -24 -22 -21 -19 -19 -19 -18 -17 -16 -17 -16 -15 -15 -15 -13 -13 -13 -11 -11 -11 -11 -11 -12 -12 -11 -11
-17 -17 -18 -18 -19 -19 -20 -20 -21 -22 -23 -23 -23 -23 -24 -24 -25 -25 -25 -26 -25 -25 -23 -21 -20 -20 -19 -19 -18 -18 -18 -17 -15 -15 -15 -13 -13 -13 -12 -12 -12 -12 -12 -12 -12 -11 -10
-18 -18 -18 -18 -19 -19 -20 -20 -21 -21 -23 -23 -23 -23 -24 -25 -25 -26 -26 -26 -25 -23 -23 -22 -22 -21 -20 -20 -19 -18 -19 -18 -16 -16 -15 -14 -14 -13 -12 -11 -12 -11 -11 -11 -11 -11 -10
-18 -18 -18 -18 -19 -19 -20 -20 -21 -21 -22 -23 -23 -23 -23 -24 -24 -25 -25 -25 -25 -23 -22 -22 -23 -23 -21 -21 -20 -20 -19 -18 -18 -16 -15 -14 -14 -14 -13 -12 -13 -12 -13 -12 -12 -12 -12
-18 -18 -18 -18 -19 -19 -20 -20 -21 -21 -22 -23 -23 -23 -23 -24 -24 -24 -24 -24 -23 -23 -23 -23 -24 -24 -22 -21 -21 -20 -20 -19 -18 -18 -16 -15 -15 -14 -13 -15 -15 -14 -13 -14 -14 -14 -13
-18 -18 -18 -18 -19 -19 -20 -20 -21 -22 -22 -23 -24 -24 -23 -23 -24 -23 -22 -22 -23 -23 -24 -23 -22 -23 -23 -23 -22 -21 -20 -19 -19 -19 -18 -16 -16 -14 -15 -16 -14 -14 -14 -15 -15 -14 -13
-18 -18 -18 -19 -19 -19 -19 -20 -21 -21 -22 -22 -24 -24 -24 -23 -24 -24 -24 -23 -24 -24 -24 -24 -23 -23 -23 -23 -23 -22 -21 -20 -19 -19 -19 -17 -17 -16 -15 -14 -15 -16 -16 -15 -16 -14 -14
-18 -18 -18 -19 -19 -19 -19 -20 -21 -21 -22 -22 -23 -24 -24 -24 -24 -24 -25 -24 -25 -25 -24 -24 -23 -23 -24 -23 -23 -23 -21 -20 -19 -18 -18 -18 -18 -18 -16 -17 -16 -16 -16 -16 -16 -16 -15
-18 -18 -18 -19 -19 -19 -19 -20 -21 -21 -21 -22 -22 -24 -24 -24 -25 -24 -24 -24 -24 -24 -24 -25 -24 -24 -23 -23 -23 -23 -21 -20 -21 -20 -20 -18 -18 -18 -16 -15 -15 -17 -16 -16 -16 -16 -15
-18 -18 -19 -19 -19 -19 -20 -20 -20 -21 -22 -22 -22 -23 -23 -25 -24 -24 -24 -23 -24 -24 -24 -24 -24 -23 -23 -23 -23 -23 -22 -21 -20 -20 -20 -20 -19 -18 -18 -17 -17 -17 -17 -16 -17 -17 -16
-18 -19 -19 -19 -19 -20 -20 -20 -20 -21 -22 -22 -22 -22 -23 -24 -25 -24 -24 -24 -24 -24 -24 -24 -24 -24 -24 -24 -23 -23 -22 -23 -22 -22 -20 -20 -20 -20 -18 -18 -17 -17 -17 -17 -17 -16 -17
-19 -19 -19 -19 -19 -20 -20 -20 -21 -21 -22 -22 -22 -22 -22 -24 -24 -25 -24 -25 -24 -24 -24 -24 -24 -24 -24 -23 -23 -23 -23 -23 -23 -23 -23 -22 -21 -20 -18 -19 -19 -18 -17 -17 -17 -17 -17
-19 -19 -19 -19 -20 -20 -20 -20 -21 -21 -21 -22 -22 -22 -22 -23 -23 -25 -25 -25 -25 -24 -24 -24 -24 -23 -22 -24 -25 -24 -24 -23 -23 -23 -23 -23 -22 -21 -20 -20 -20 -18 -17 -17 -18 -18 -18
-19 -19 -19 -19 -20 -20 -21 -21 -21 -21 -22 -22 -23 -22 -22 -23 -23 -25 -25 -25 -25 -25 -24 -24 -25 -24 -25 -25 -25 -24 -24 -24 -23 -22 -22 -23 -22 -22 -22 -21 -20 -17 -18 -18 -18 -17 -18
-19 -19 -19 -19 -20 -21 -21 -21 -21 -21 -22 -23 -23 -23 -23 -23 -23 -24 -25 -25 -25 -25 -25 -24 -25 -25 -25 -25 -25 -25 -24 -23 -24 -23 -22 -22 -22 -23 -22 -22 -22 -18 -17 -18 -18 -18 -17
-19 -20 -20 -20 -20 -21 -21 -21 -21 -21 -22 -23 -24 -23 -23 -23 -23 -23 -25 -25 -25 -25 -25 -25 -25 -25 -25 -25 -25 -25 -24 -24 -24 -23 -23 -23 -23 -23 -22 -23 -22 -19 -18 -19 -21 -18 -16
-20 -20 -20 -20 -20 -21 -21 -22 -22 -22 -22 -23 -24 -24 -24 -23 -24 -23 -24 -25 -26 -26 -26 -25 -25 -25 -25 -25 -25 -24 -24 -23 -23 -23 -23 -23 -24 -23 -23 -23 -23 -20 -18 -20 -19 -19 -16
-20 -20 -20 -20 -21 -21 -21 -22 -22 -22 -22 -23 -24 -24 -24 -24 -24 -24 -24 -25 -25 -26 -25 -26 -26 -26 -25 -25 -25 -24 -24 -24 -24 -23 -24 -24 -23 -22 -23 -23 -23 -21 -20 -20 -19 -19 -18

GFSGBSN_500_temp_219.txt.gz
Temp
-14 -14 -14 -14 -14 -14 -14 -14 -14 -14 -14 -14 -14 -14 -13 -13 -13 -13 -13 -12 -12 -12 -12 -11 -10 -10 -10 -9 -9 -8 -9 -9 -9 -9 -9 -9 -8 -8 -8 -8 -8 -7 -7 -7 -8 -7 -7
-14 -14 -14 -14 -14 -14 -15 -15 -15 -15 -15 -15 -15 -15 -14 -14 -14 -13 -13 -13 -13 -12 -12 -12 -11 -11 -10 -9 -10 -9 -9 -9 -9 -9 -9 -9 -9 -9 -8 -8 -8 -7 -7 -7 -7 -7 -7
-15 -15 -15 -15 -15 -15 -15 -15 -16 -16 -16 -16 -16 -16 -16 -15 -14 -14 -14 -13 -13 -13 -12 -12 -12 -11 -10 -9 -10 -10 -9 -10 -9 -9 -9 -9 -9 -9 -9 -8 -8 -8 -8 -7 -7 -7 -7
-15 -15 -15 -15 -15 -16 -16 -16 -17 -16 -16 -17 -17 -17 -17 -17 -16 -16 -15 -14 -14 -13 -13 -12 -12 -11 -10 -11 -11 -10 -10 -10 -10 -10 -10 -10 -10 -9 -8 -9 -9 -8 -8 -8 -7 -7 -7
-15 -15 -15 -15 -15 -16 -16 -16 -17 -17 -17 -18 -18 -18 -18 -18 -18 -17 -16 -16 -15 -14 -14 -13 -13 -12 -11 -11 -11 -11 -11 -11 -11 -10 -11 -11 -10 -9 -9 -9 -9 -8 -8 -7 -8 -8 -7
-15 -15 -15 -16 -16 -16 -16 -17 -17 -18 -18 -18 -19 -19 -19 -19 -19 -18 -18 -17 -16 -16 -15 -14 -14 -13 -12 -11 -11 -11 -11 -11 -11 -11 -11 -12 -11 -10 -9 -9 -8 -8 -8 -8 -8 -8 -8
-15 -15 -16 -16 -16 -16 -17 -17 -18 -18 -18 -19 -19 -20 -19 -19 -19 -19 -19 -18 -18 -17 -16 -16 -15 -14 -13 -12 -11 -11 -12 -11 -11 -11 -10 -11 -12 -11 -9 -9 -9 -9 -9 -8 -8 -8 -9
-16 -15 -16 -16 -16 -17 -17 -17 -18 -18 -18 -19 -19 -20 -20 -19 -19 -19 -19 -19 -19 -18 -17 -17 -16 -15 -14 -13 -12 -11 -12 -12 -12 -11 -11 -12 -11 -10 -10 -10 -9 -9 -9 -9 -9 -9 -9
-16 -16 -16 -16 -16 -17 -17 -18 -18 -19 -19 -20 -20 -21 -21 -21 -21 -20 -19 -19 -19 -19 -19 -18 -17 -16 -15 -15 -13 -13 -12 -13 -13 -12 -13 -12 -10 -11 -11 -10 -10 -9 -9 -9 -9 -9 -9
-16 -16 -16 -16 -17 -17 -17 -18 -19 -19 -19 -20 -21 -22 -22 -22 -22 -22 -22 -20 -20 -19 -19 -17 -18 -17 -17 -16 -14 -14 -13 -13 -13 -13 -13 -13 -11 -11 -11 -11 -11 -10 -9 -9 -10 -10 -9
-16 -16 -16 -17 -17 -17 -18 -18 -19 -19 -20 -20 -22 -22 -22 -22 -23 -23 -23 -22 -22 -21 -21 -19 -18 -18 -17 -17 -16 -15 -15 -15 -14 -14 -14 -12 -12 -11 -11 -10 -12 -10 -11 -10 -11 -10 -10
-17 -17 -17 -17 -17 -18 -18 -18 -19 -20 -20 -20 -22 -22 -22 -22 -23 -23 -23 -24 -24 -23 -21 -20 -19 -18 -18 -17 -17 -16 -17 -15 -15 -16 -16 -12 -13 -13 -12 -12 -12 -12 -12 -12 -12 -12 -12
-17 -17 -17 -17 -18 -18 -18 -19 -19 -20 -20 -21 -21 -23 -23 -23 -23 -24 -24 -25 -27 -24 -23 -22 -20 -19 -19 -19 -18 -17 -17 -17 -16 -16 -16 -13 -13 -13 -13 -12 -13 -13 -13 -13 -13 -13 -10
-17 -17 -17 -18 -18 -18 -18 -19 -19 -20 -20 -21 -21 -23 -23 -23 -23 -24 -25 -26 -25 -25 -25 -24 -23 -22 -21 -20 -19 -19 -18 -19 -18 -19 -18 -15 -14 -14 -13 -13 -13 -13 -12 -13 -13 -12 -10
-17 -17 -17 -18 -18 -18 -19 -19 -19 -20 -21 -21 -21 -22 -23 -23 -23 -23 -25 -25 -25 -26 -25 -24 -24 -23 -22 -21 -20 -20 -20 -20 -20 -19 -19 -17 -15 -15 -14 -14 -14 -13 -15 -12 -13 -13 -12
-17 -18 -18 -18 -18 -18 -19 -19 -19 -20 -20 -21 -22 -21 -23 -23 -23 -23 -23 -24 -25 -25 -25 -24 -24 -23 -22 -22 -22 -21 -21 -20 -20 -20 -19 -19 -17 -16 -16 -16 -16 -15 -14 -14 -15 -14 -15
-18 -18 -18 -18 -18 -18 -19 -19 -19 -20 -20 -21 -22 -22 -22 -23 -23 -23 -24 -24 -25 -25 -24 -24 -24 -23 -22 -22 -23 -22 -20 -21 -21 -21 -20 -19 -19 -17 -17 -18 -16 -16 -15 -16 -15 -16 -15
-18 -18 -18 -18 -18 -18 -19 -19 -20 -20 -20 -21 -22 -22 -22 -23 -24 -24 -24 -25 -25 -26 -26 -25 -24 -24 -23 -24 -23 -23 -21 -21 -21 -21 -20 -20 -19 -19 -18 -17 -17 -17 -17 -17 -17 -16 -16
-18 -18 -18 -18 -18 -18 -19 -19 -20 -20 -20 -21 -21 -22 -23 -23 -24 -24 -24 -25 -25 -25 -25 -25 -24 -24 -24 -24 -23 -23 -23 -22 -21 -21 -21 -20 -21 -20 -19 -19 -19 -18 -17 -17 -18 -18 -17
-18 -18 -18 -18 -18 -18 -19 -19 -20 -20 -20 -21 -21 -22 -23 -23 -24 -25 -24 -24 -25 -25 -24 -25 -24 -24 -24 -24 -24 -23 -22 -23 -22 -22 -21 -21 -22 -20 -19 -18 -18 -18 -17 -17 -17 -17 -17
-18 -18 -18 -18 -18 -19 -19 -19 -20 -20 -20 -21 -21 -22 -23 -23 -23 -24 -25 -24 -25 -25 -24 -25 -24 -24 -25 -24 -24 -23 -22 -22 -22 -23 -23 -22 -20 -21 -19 -19 -19 -18 -18 -18 -18 -18 -18
-18 -19 -19 -19 -19 -19 -19 -19 -20 -20 -21 -21 -21 -21 -23 -23 -23 -23 -24 -25 -24 -25 -25 -25 -24 -25 -24 -23 -23 -23 -24 -24 -23 -23 -23 -22 -21 -21 -20 -19 -20 -19 -18 -18 -18 -18 -19
-19 -19 -19 -19 -19 -19 -19 -19 -20 -20 -21 -21 -21 -21 -22 -23 -23 -23 -24 -24 -25 -24 -24 -24 -25 -25 -25 -24 -24 -24 -24 -23 -23 -23 -23 -23 -23 -22 -21 -21 -20 -20 -19 -20 -19 -19 -19
-19 -19 -19 -19 -19 -19 -19 -20 -20 -20 -21 -21 -21 -21 -21 -23 -23 -24 -24 -23 -24 -25 -24 -25 -24 -24 -25 -25 -24 -24 -23 -23 -23 -23 -23 -23 -23 -23 -22 -22 -22 -21 -20 -20 -19 -18 -19
-19 -19 -19 -19 -19 -19 -19 -20 -20 -20 -21 -21 -21 -21 -21 -22 -24 -24 -24 -24 -24 -25 -25 -24 -25 -25 -25 -25 -25 -24 -24 -23 -23 -22 -22 -22 -23 -22 -23 -23 -22 -20 -19 -19 -20 -18 -19
-19 -19 -19 -19 -19 -20 -20 -20 -20 -21 -21 -21 -21 -21 -21 -22 -24 -24 -24 -24 -23 -24 -25 -25 -25 -25 -25 -25 -25 -24 -24 -24 -23 -22 -22 -23 -23 -23 -22 -22 -22 -18 -20 -20 -20 -19 -19
-19 -19 -20 -20 -20 -20 -20 -20 -21 -21 -21 -22 -22 -21 -21 -22 -24 -24 -24 -24 -24 -24 -24 -26 -26 -26 -25 -25 -25 -25 -24 -24 -24 -23 -22 -23 -23 -23 -23 -23 -22 -20 -20 -21 -22 -20 -19
-20 -20 -20 -20 -20 -20 -20 -21 -21 -21 -21 -21 -22 -21 -21 -22 -24 -24 -24 -24 -24 -24 -24 -26 -26 -26 -26 -26 -26 -25 -25 -24 -24 -24 -23 -23 -23 -23 -23 -23 -22 -20 -20 -22 -21 -20 -19
-20 -20 -20 -20 -20 -20 -21 -21 -21 -21 -21 -21 -22 -22 -22 -22 -23 -24 -24 -24 -24 -24 -24 -26 -26 -26 -26 -26 -25 -25 -25 -24 -25 -24 -24 -24 -23 -23 -23 -23 -23 -21 -20 -20 -21 -21 -19

GFSGBSN_500_temp_222.txt.gz
Temp
-14 -14 -14 -14 -14 -14 -14 -14 -14 -14 -14 -14 -14 -14 -13 -13 -13 -13 -13 -13 -13 -13 -12 -12 -11 -10 -10 -10 -9 -9 -10 -10 -9 -9 -9 -9 -8 -8 -8 -8 -8 -7 -7 -7 -8 -8 -8
-14 -14 -14 -14 -14 -14 -14 -14 -14 -14 -14 -14 -14 -14 -14 -14 -14 -14 -13 -13 -13 -13 -13 -12 -12 -12 -11 -9 -10 -10 -9 -10 -10 -10 -9 -9 -9 -8 -8 -8 -8 -8 -8 -8 -8 -7 -7
-14 -14 -14 -14 -14 -14 -14 -14 -14 -15 -15 -15 -15 -15 -15 -15 -15 -15 -14 -14 -13 -13 -13 -13 -12 -12 -11 -10 -11 -11 -10 -9 -10 -10 -10 -10 -9 -9 -9 -8 -8 -8 -8 -8 -7 -7 -7
-15 -14 -15 -15 -14 -14 -14 -15 -15 -15 -15 -16 -16 -16 -16 -16 -16 -16 -16 -15 -14 -13 -13 -13 -13 -12 -12 -12 -12 -12 -11 -10 -10 -10 -11 -10 -10 -9 -9 -9 -8 -8 -8 -8 -7 -8 -7
-15 -15 -15 -15 -15 -15 -15 -15 -15 -16 -16 -16 -16 -17 -17 -17 -17 -18 -18 -17 -16 -15 -14 -13 -13 -13 -12 -12 -12 -12 -12 -11 -10 -10 -10 -11 -10 -10 -9 -9 -9 -8 -7 -8 -8 -8 -8
-15 -15 -15 -15 -15 -15 -15 -15 -15 -16 -16 -17 -17 -17 -18 -18 -18 -19 -19 -18 -18 -17 -17 -15 -14 -13 -13 -12 -12 -12 -12 -12 -11 -10 -11 -11 -10 -10 -10 -9 -8 -8 -8 -8 -8 -8 -8
-15 -15 -15 -15 -15 -15 -15 -15 -16 -16 -17 -17 -17 -18 -18 -18 -19 -19 -19 -19 -19 -19 -18 -17 -15 -14 -13 -13 -12 -12 -13 -12 -12 -12 -10 -11 -11 -10 -9 -9 -9 -9 -8 -8 -8 -9 -9
-16 -15 -15 -15 -15 -15 -16 -16 -16 -17 -17 -18 -18 -18 -18 -19 -20 -21 -21 -20 -19 -19 -18 -18 -17 -15 -15 -13 -13 -13 -13 -13 -12 -12 -12 -12 -11 -10 -11 -10 -10 -10 -9 -9 -9 -9 -9
-16 -16 -16 -16 -16 -16 -16 -16 -17 -17 -17 -18 -18 -19 -19 -20 -22 -22 -21 -21 -21 -20 -19 -18 -18 -17 -16 -15 -13 -14 -13 -13 -13 -13 -12 -12 -10 -11 -11 -11 -10 -10 -10 -9 -9 -9 -9
-16 -16 -16 -16 -16 -16 -17 -17 -17 -17 -18 -18 -19 -19 -19 -20 -22 -22 -22 -22 -22 -21 -20 -18 -18 -18 -17 -17 -15 -15 -14 -14 -14 -13 -13 -13 -12 -11 -11 -11 -11 -10 -10 -11 -10 -10 -9
-16 -16 -16 -16 -17 -17 -17 -17 -17 -18 -18 -18 -19 -19 -20 -20 -22 -22 -22 -22 -22 -22 -21 -19 -19 -18 -18 -17 -16 -15 -16 -15 -14 -14 -15 -13 -12 -12 -11 -10 -12 -11 -11 -11 -11 -11 -11
-17 -16 -16 -17 -17 -17 -17 -18 -18 -18 -18 -19 -19 -20 -20 -21 -22 -22 -22 -22 -23 -24 -21 -22 -20 -19 -18 -18 -17 -17 -16 -16 -15 -15 -15 -14 -14 -13 -12 -12 -12 -12 -12 -12 -12 -12 -13
-17 -17 -17 -17 -17 -17 -18 -18 -18 -18 -19 -19 -19 -20 -20 -21 -22 -23 -22 -22 -24 -24 -24 -25 -23 -21 -20 -20 -19 -18 -18 -18 -17 -16 -16 -14 -14 -14 -13 -13 -13 -14 -14 -13 -13 -13 -12
-17 -17 -17 -17 -17 -18 -18 -18 -18 -18 -19 -19 -19 -20 -21 -21 -21 -23 -23 -23 -23 -25 -26 -26 -25 -24 -23 -22 -21 -20 -19 -19 -19 -18 -17 -17 -15 -15 -14 -13 -14 -14 -13 -13 -13 -13 -11
-17 -17 -17 -18 -18 -18 -18 -18 -18 -19 -19 -19 -19 -20 -21 -21 -21 -23 -23 -23 -24 -25 -26 -25 -25 -25 -24 -23 -22 -21 -20 -20 -20 -20 -19 -18 -16 -15 -15 -16 -16 -14 -17 -13 -15 -15 -13
-17 -17 -17 -18 -18 -18 -18 -18 -19 -19 -19 -20 -20 -20 -21 -21 -22 -22 -23 -23 -24 -26 -26 -26 -25 -25 -24 -24 -23 -23 -22 -21 -20 -20 -20 -19 -18 -17 -17 -17 -18 -16 -16 -17 -17 -16 -16
-17 -17 -18 -18 -18 -18 -18 -18 -19 -19 -19 -20 -20 -20 -21 -21 -22 -22 -23 -24 -24 -26 -26 -25 -25 -25 -25 -25 -24 -23 -23 -22 -22 -21 -20 -20 -20 -18 -18 -19 -17 -17 -17 -18 -18 -18 -17
-18 -17 -18 -18 -18 -18 -18 -19 -19 -19 -19 -20 -20 -20 -21 -22 -22 -22 -23 -23 -24 -25 -25 -25 -25 -25 -25 -24 -24 -24 -23 -22 -21 -21 -22 -21 -20 -19 -18 -18 -19 -19 -19 -18 -19 -17 -17
-18 -18 -18 -18 -18 -18 -18 -19 -19 -19 -20 -20 -21 -20 -21 -21 -22 -22 -22 -24 -24 -25 -25 -25 -25 -25 -25 -25 -24 -24 -24 -23 -22 -21 -22 -22 -22 -20 -19 -19 -19 -19 -19 -19 -19 -18 -18
-18 -18 -18 -18 -18 -19 -19 -19 -19 -19 -20 -20 -21 -21 -21 -21 -22 -23 -23 -23 -23 -24 -25 -25 -25 -24 -24 -24 -25 -23 -23 -23 -24 -23 -22 -22 -22 -22 -21 -20 -20 -20 -18 -19 -19 -19 -18
-18 -18 -18 -18 -18 -19 -19 -19 -19 -19 -20 -20 -21 -21 -21 -22 -22 -23 -23 -23 -23 -23 -24 -25 -25 -25 -25 -24 -24 -24 -24 -24 -24 -24 -23 -23 -23 -22 -22 -21 -21 -19 -20 -19 -18 -19 -19
-18 -18 -18 -18 -19 -19 -19 -19 -19 -19 -20 -20 -21 -21 -21 -22 -22 -23 -23 -23 -23 -23 -23 -24 -25 -25 -25 -24 -24 -24 -24 -24 -23 -24 -24 -24 -23 -23 -22 -23 -22 -21 -20 -20 -20 -20 -20
-19 -19 -19 -19 -19 -19 -19 -19 -19 -19 -20 -20 -20 -21 -21 -22 -22 -23 -23 -23 -23 -23 -24 -24 -24 -25 -25 -25 -25 -24 -24 -24 -23 -23 -24 -24 -24 -23 -22 -22 -22 -22 -21 -21 -20 -19 -19
-19 -19 -19 -19 -19 -19 -19 -19 -19 -19 -20 -20 -20 -21 -21 -21 -22 -22 -23 -23 -23 -24 -23 -24 -24 -24 -25 -25 -25 -25 -24 -24 -24 -23 -23 -23 -23 -24 -22 -23 -23 -21 -21 -21 -20 -20 -19
-19 -19 -19 -19 -19 -19 -19 -20 -20 -20 -20 -20 -20 -20 -21 -21 -22 -22 -23 -23 -23 -23 -24 -23 -25 -24 -25 -25 -25 -25 -25 -24 -23 -23 -23 -23 -23 -23 -24 -23 -22 -22 -22 -21 -22 -20 -21
-19 -19 -19 -19 -19 -19 -20 -20 -20 -20 -20 -20 -21 -20 -21 -21 -22 -22 -23 -23 -23 -23 -24 -24 -24 -25 -25 -25 -25 -25 -24 -24 -24 -24 -23 -23 -23 -24 -23 -23 -23 -21 -21 -22 -23 -22 -21
-19 -20 -20 -20 -20 -20 -20 -20 -20 -20 -20 -20 -21 -21 -21 -21 -22 -22 -22 -23 -23 -23 -24 -24 -24 -25 -26 -26 -25 -25 -24 -24 -24 -24 -24 -24 -23 -24 -23 -24 -23 -22 -22 -22 -23 -22 -20
-20 -20 -20 -20 -20 -20 -20 -20 -20 -20 -20 -21 -21 -21 -21 -21 -22 -22 -22 -22 -23 -24 -24 -24 -24 -25 -26 -27 -26 -26 -25 -25 -24 -24 -24 -24 -24 -24 -24 -24 -23 -21 -22 -23 -22 -22 -21
-20 -20 -20 -20 -20 -20 -20 -20 -20 -20 -21 -21 -21 -21 -21 -21 -22 -22 -22 -23 -23 -23 -24 -24 -24 -25 -26 -27 -26 -26 -26 -25 -25 -25 -25 -25 -25 -25 -25 -24 -24 -22 -23 -23 -23 -23 -22